{"data":{"norad_id":69321,"epoch":"2026-09-20T04:05:10.513248Z","epoch_age_seconds":58520,"freshness":"FRESH","line1":"1 69321U 26120B   26263.17026057  .00005567  00000+0  18988-3 0  9998","line2":"2 69321  54.9975 321.4687 0008154 172.3892 187.7259 15.31888715 17298","mean_motion":15.31888715,"eccentricity":0.0008154,"inclination_deg":54.9975,"raan_deg":321.4687,"arg_perigee_deg":172.3892,"mean_anomaly_deg":187.7259,"bstar":0.00018988,"rev_number":1729,"period_min":94.001606376479,"perigee_km":464.59338773621,"apogee_km":475.76161902833,"semimajor_km":6848.3145033823,"source":"CELESTRAK","updated_at":"2026-09-20T09:00:24.817693Z"}}